Time,TemperatureF,DewpointF,PressureIn,WindDirection,WindDirectionDegrees,WindSpeedMPH,WindSpeedGustMPH,Humidity,HourlyPrecipIn,Conditions,Clouds,dailyrainin,SoftwareType,DateUTC
2015-05-24 00:01:00,56.0,43.0,-100.00,NNE,15,2.0,3.0,62,-99.99,,,-99.99,,2015-05-24 04:01:00,
2015-05-24 00:11:00,56.0,44.0,-100.00,NNE,15,1.0,3.0,63,-99.99,,,-99.99,,2015-05-24 04:11:00,
2015-05-24 00:21:00,56.0,44.0,-100.00,NNE,15,1.0,2.0,65,-99.99,,,-99.99,,2015-05-24 04:21:00,
2015-05-24 00:31:00,55.0,44.0,-100.00,NNE,15,1.0,2.0,66,-99.99,,,-99.99,,2015-05-24 04:31:00,
2015-05-24 00:41:00,55.0,45.0,-100.00,NNE,15,1.0,3.0,68,-99.99,,,-99.99,,2015-05-24 04:41:00,
2015-05-24 00:51:00,55.0,45.0,-100.00,NNE,15,1.0,2.0,68,-99.99,,,-99.99,,2015-05-24 04:51:00,
2015-05-24 01:01:00,54.0,45.0,-100.00,NNE,15,1.0,2.0,69,-99.99,,,-99.99,,2015-05-24 05:01:00,
2015-05-24 01:11:00,54.0,45.0,-100.00,NNE,15,1.0,2.0,71,-99.99,,,-99.99,,2015-05-24 05:11:00,
2015-05-24 01:21:00,54.0,45.0,-100.00,NNE,15,1.0,2.0,72,-99.99,,,-99.99,,2015-05-24 05:21:00,
2015-05-24 01:31:00,53.0,45.0,-100.00,NNE,15,1.0,2.0,73,-99.99,,,-99.99,,2015-05-24 05:31:00,
2015-05-24 01:42:00,53.0,45.0,-100.00,NNE,15,2.0,2.0,73,-99.99,,,-99.99,,2015-05-24 05:42:00,
2015-05-24 01:51:00,54.0,46.0,-100.00,NNE,15,2.0,2.0,73,-99.99,,,-99.99,,2015-05-24 05:51:00,
2015-05-24 02:01:00,54.0,46.0,-100.00,NNE,15,1.0,2.0,73,-99.99,,,-99.99,,2015-05-24 06:01:00,
2015-05-24 02:11:00,53.0,46.0,-100.00,NNE,15,2.0,2.0,74,-99.99,,,-99.99,,2015-05-24 06:11:00,
2015-05-24 02:21:00,53.0,46.0,-100.00,NNE,15,2.0,2.0,75,-99.99,,,-99.99,,2015-05-24 06:21:00,
2015-05-24 02:31:00,53.0,46.0,-100.00,NNE,15,2.0,3.0,75,-99.99,,,-99.99,,2015-05-24 06:31:00,
2015-05-24 03:42:00,54.0,46.0,-100.00,NNE,15,2.0,3.0,73,-99.99,,,-99.99,,2015-05-24 07:42:00,
2015-05-24 05:02:00,53.0,45.0,-100.00,NNE,15,2.0,3.0,75,-99.99,,,-99.99,,2015-05-24 09:02:00,
2015-05-24 05:11:00,52.0,45.0,-100.00,NNE,15,2.0,4.0,76,-99.99,,,-99.99,,2015-05-24 09:11:00,
2015-05-24 05:21:00,52.0,45.0,-100.00,NNE,15,2.0,4.0,76,-99.99,,,-99.99,,2015-05-24 09:21:00,
2015-05-24 05:31:00,52.0,45.0,-100.00,NNE,15,2.0,3.0,76,-99.99,,,-99.99,,2015-05-24 09:31:00,
2015-05-24 05:41:00,53.0,46.0,-100.00,NNE,15,2.0,3.0,75,-99.99,,,-99.99,,2015-05-24 09:41:00,
2015-05-24 05:51:00,53.0,45.0,-100.00,NNE,15,2.0,3.0,74,-99.99,,,-99.99,,2015-05-24 09:51:00,
2015-05-24 06:02:00,54.0,45.0,-100.00,NNE,15,2.0,4.0,73,-99.99,,,-99.99,,2015-05-24 10:02:00,
2015-05-24 06:11:00,54.0,45.0,-100.00,NNE,15,2.0,4.0,71,-99.99,,,-99.99,,2015-05-24 10:11:00,
2015-05-24 06:21:00,54.0,45.0,-100.00,NNE,15,3.0,4.0,70,-99.99,,,-99.99,,2015-05-24 10:21:00,
2015-05-24 06:31:00,55.0,45.0,-100.00,NNE,15,3.0,4.0,69,-99.99,,,-99.99,,2015-05-24 10:31:00,
2015-05-24 06:42:00,55.0,45.0,-100.00,NNE,15,3.0,6.0,69,-99.99,,,-99.99,,2015-05-24 10:42:00,
2015-05-24 06:51:00,55.0,45.0,-100.00,NNE,15,3.0,4.0,68,-99.99,,,-99.99,,2015-05-24 10:51:00,
2015-05-24 07:02:00,56.0,45.0,-100.00,NNE,15,4.0,6.0,68,-99.99,,,-99.99,,2015-05-24 11:02:00,
2015-05-24 07:11:00,56.0,45.0,-100.00,NNE,15,3.0,6.0,67,-99.99,,,-99.99,,2015-05-24 11:11:00,
2015-05-24 07:22:00,56.0,46.0,-100.00,NNE,15,3.0,6.0,67,-99.99,,,-99.99,,2015-05-24 11:22:00,
2015-05-24 07:32:00,57.0,46.0,-100.00,NNE,15,4.0,6.0,66,-99.99,,,-99.99,,2015-05-24 11:32:00,
2015-05-24 07:42:00,58.0,46.0,-100.00,NNE,15,4.0,6.0,65,-99.99,,,-99.99,,2015-05-24 11:42:00,
2015-05-24 07:52:00,58.0,46.0,-100.00,NNE,15,3.0,7.0,64,-99.99,,,-99.99,,2015-05-24 11:52:00,
2015-05-24 08:01:00,59.0,47.0,-100.00,NNE,15,4.0,6.0,63,-99.99,,,-99.99,,2015-05-24 12:01:00,
2015-05-24 08:31:00,62.0,47.0,-100.00,NNE,15,4.0,6.0,58,-99.99,,,-99.99,,2015-05-24 12:31:00,
2015-05-24 08:42:00,63.0,48.0,-100.00,NNE,15,4.0,6.0,57,-99.99,,,-99.99,,2015-05-24 12:42:00,
2015-05-24 09:11:00,65.0,48.0,-100.00,NNE,20,5.0,9.0,53,-99.99,,,-99.99,,2015-05-24 13:11:00,
2015-05-24 09:21:00,66.0,48.0,-100.00,NNE,20,4.0,7.0,53,-99.99,,,-99.99,,2015-05-24 13:21:00,
2015-05-24 09:31:00,67.0,49.0,-100.00,NNE,20,3.0,7.0,52,-99.99,,,-99.99,,2015-05-24 13:31:00,
2015-05-24 09:42:00,68.0,49.0,-100.00,NNE,20,4.0,7.0,50,-99.99,,,-99.99,,2015-05-24 13:42:00,
2015-05-24 09:51:00,68.0,49.0,-100.00,NNE,20,4.0,8.0,49,-99.99,,,-99.99,,2015-05-24 13:51:00,
2015-05-24 10:01:00,70.0,49.0,-100.00,NNE,20,2.0,9.0,48,-99.99,,,-99.99,,2015-05-24 14:01:00,
2015-05-24 10:11:00,71.0,50.0,-100.00,NNE,20,3.0,7.0,47,-99.99,,,-99.99,,2015-05-24 14:11:00,
2015-05-24 10:21:00,71.0,50.0,-100.00,NNE,20,4.0,9.0,46,-99.99,,,-99.99,,2015-05-24 14:21:00,
2015-05-24 10:31:00,72.0,50.0,-100.00,NNE,20,3.0,8.0,45,-99.99,,,-99.99,,2015-05-24 14:31:00,
2015-05-24 10:42:00,73.0,50.0,-100.00,NNE,20,6.0,8.0,45,-99.99,,,-99.99,,2015-05-24 14:42:00,
2015-05-24 10:51:00,74.0,51.0,-100.00,NNE,20,5.0,9.0,44,-99.99,,,-99.99,,2015-05-24 14:51:00,
2015-05-24 11:01:00,74.0,51.0,-100.00,NNE,20,4.0,10.0,43,-99.99,,,-99.99,,2015-05-24 15:01:00,
2015-05-24 11:11:00,74.0,50.0,-100.00,NNE,20,6.0,12.0,41,-99.99,,,-99.99,,2015-05-24 15:11:00,
2015-05-24 11:21:00,75.0,50.0,-100.00,NNE,20,6.0,12.0,40,-99.99,,,-99.99,,2015-05-24 15:21:00,
2015-05-24 11:31:00,76.0,50.0,-100.00,NNE,20,6.0,11.0,40,-99.99,,,-99.99,,2015-05-24 15:31:00,
2015-05-24 11:42:00,76.0,49.0,-100.00,NNE,20,7.0,13.0,39,-99.99,,,-99.99,,2015-05-24 15:42:00,
2015-05-24 11:51:00,77.0,49.0,-100.00,NNE,20,4.0,13.0,38,-99.99,,,-99.99,,2015-05-24 15:51:00,
2015-05-24 12:02:00,77.0,49.0,-100.00,NNE,15,6.0,9.0,37,-99.99,,,-99.99,,2015-05-24 16:02:00,
2015-05-24 12:11:00,77.0,49.0,-100.00,NNE,15,6.0,11.0,36,-99.99,,,-99.99,,2015-05-24 16:11:00,
2015-05-24 12:21:00,78.0,48.0,-100.00,NNE,15,7.0,12.0,35,-99.99,,,-99.99,,2015-05-24 16:21:00,
2015-05-24 12:31:00,78.0,49.0,-100.00,NNE,20,4.0,10.0,35,-99.99,,,-99.99,,2015-05-24 16:31:00,
2015-05-24 12:42:00,78.0,48.0,-100.00,NNE,20,4.0,11.0,34,-99.99,,,-99.99,,2015-05-24 16:42:00,
2015-05-24 12:52:00,78.0,47.0,-100.00,NNE,15,6.0,14.0,33,-99.99,,,-99.99,,2015-05-24 16:52:00,
2015-05-24 13:02:00,79.0,48.0,-100.00,NNE,20,6.0,10.0,33,-99.99,,,-99.99,,2015-05-24 17:02:00,
2015-05-24 13:12:00,79.0,47.0,-100.00,NNE,15,7.0,12.0,32,-99.99,,,-99.99,,2015-05-24 17:12:00,
2015-05-24 13:22:00,80.0,48.0,-100.00,NNE,20,6.0,11.0,33,-99.99,,,-99.99,,2015-05-24 17:22:00,
2015-05-24 13:32:00,79.0,47.0,-100.00,NNE,15,6.0,11.0,32,-99.99,,,-99.99,,2015-05-24 17:32:00,
2015-05-24 13:42:00,80.0,48.0,-100.00,NNE,20,4.0,11.0,32,-99.99,,,-99.99,,2015-05-24 17:42:00,
2015-05-24 13:52:00,81.0,48.0,-100.00,NNE,20,6.0,12.0,31,-99.99,,,-99.99,,2015-05-24 17:52:00,
2015-05-24 14:02:00,80.0,48.0,-100.00,NNE,15,7.0,14.0,31,-99.99,,,-99.99,,2015-05-24 18:02:00,
2015-05-24 14:12:00,81.0,47.0,-100.00,NNE,15,7.0,12.0,30,-99.99,,,-99.99,,2015-05-24 18:12:00,
2015-05-24 14:22:00,80.0,46.0,-100.00,NNE,15,4.0,13.0,29,-99.99,,,-99.99,,2015-05-24 18:22:00,
2015-05-24 14:32:00,81.0,46.0,-100.00,NNE,15,7.0,14.0,29,-99.99,,,-99.99,,2015-05-24 18:32:00,
2015-05-24 14:42:00,81.0,46.0,-100.00,NNE,15,7.0,11.0,30,-99.99,,,-99.99,,2015-05-24 18:42:00,
2015-05-24 14:52:00,81.0,46.0,-100.00,NNE,15,4.0,12.0,29,-99.99,,,-99.99,,2015-05-24 18:52:00,
2015-05-24 15:02:00,80.0,45.0,-100.00,NNE,15,9.0,13.0,29,-99.99,,,-99.99,,2015-05-24 19:02:00,
2015-05-24 15:12:00,80.0,45.0,-100.00,NNE,15,6.0,11.0,28,-99.99,,,-99.99,,2015-05-24 19:12:00,
2015-05-24 15:22:00,80.0,44.0,-100.00,NNE,15,9.0,13.0,28,-99.99,,,-99.99,,2015-05-24 19:22:00,
2015-05-24 15:33:00,80.0,44.0,-100.00,NNE,15,7.0,14.0,28,-99.99,,,-99.99,,2015-05-24 19:33:00,
2015-05-24 15:43:00,80.0,45.0,-100.00,NNE,15,4.0,12.0,28,-99.99,,,-99.99,,2015-05-24 19:43:00,
2015-05-24 15:51:00,82.0,45.0,-100.00,NNE,15,4.0,15.0,27,-99.99,,,-99.99,,2015-05-24 19:51:00,
2015-05-24 16:02:00,81.0,44.0,-100.00,NNE,15,7.0,14.0,26,-99.99,,,-99.99,,2015-05-24 20:02:00,
2015-05-24 16:12:00,81.0,43.0,-100.00,NNE,15,5.0,9.0,26,-99.99,,,-99.99,,2015-05-24 20:12:00,
2015-05-24 16:21:00,79.0,42.0,-100.00,NNE,15,6.0,13.0,26,-99.99,,,-99.99,,2015-05-24 20:21:00,
2015-05-24 16:32:00,80.0,42.0,-100.00,NNE,15,6.0,12.0,26,-99.99,,,-99.99,,2015-05-24 20:32:00,
2015-05-24 16:43:00,79.0,42.0,-100.00,NNE,15,7.0,12.0,26,-99.99,,,-99.99,,2015-05-24 20:43:00,
2015-05-24 16:52:00,79.0,42.0,-100.00,NNE,15,6.0,12.0,26,-99.99,,,-99.99,,2015-05-24 20:52:00,
2015-05-24 17:02:00,79.0,42.0,-100.00,NNE,15,6.0,11.0,26,-99.99,,,-99.99,,2015-05-24 21:02:00,
2015-05-24 17:11:00,78.0,41.0,-100.00,NNE,15,4.0,12.0,26,-99.99,,,-99.99,,2015-05-24 21:11:00,
2015-05-24 17:21:00,78.0,41.0,-100.00,NNE,15,5.0,10.0,26,-99.99,,,-99.99,,2015-05-24 21:21:00,
2015-05-24 17:32:00,78.0,41.0,-100.00,NNE,15,6.0,9.0,26,-99.99,,,-99.99,,2015-05-24 21:32:00,
2015-05-24 17:42:00,78.0,42.0,-100.00,NNE,15,4.0,7.0,27,-99.99,,,-99.99,,2015-05-24 21:42:00,
2015-05-24 17:51:00,78.0,43.0,-100.00,NNE,15,4.0,7.0,28,-99.99,,,-99.99,,2015-05-24 21:51:00,
2015-05-24 18:02:00,78.0,42.0,-100.00,NNE,15,3.0,6.0,28,-99.99,,,-99.99,,2015-05-24 22:02:00,
2015-05-24 18:11:00,78.0,42.0,-100.00,NNE,15,3.0,6.0,28,-99.99,,,-99.99,,2015-05-24 22:11:00,
2015-05-24 18:21:00,77.0,42.0,-100.00,NNE,15,4.0,7.0,28,-99.99,,,-99.99,,2015-05-24 22:21:00,
2015-05-24 18:32:00,77.0,42.0,-100.00,NNE,15,4.0,7.0,28,-99.99,,,-99.99,,2015-05-24 22:32:00,
2015-05-24 18:42:00,77.0,42.0,-100.00,NNE,15,4.0,7.0,28,-99.99,,,-99.99,,2015-05-24 22:42:00,
2015-05-24 18:51:00,77.0,42.0,-100.00,NNE,15,3.0,7.0,28,-99.99,,,-99.99,,2015-05-24 22:51:00,
2015-05-24 19:11:00,77.0,43.0,-100.00,NNE,15,4.0,9.0,29,-99.99,,,-99.99,,2015-05-24 23:11:00,
2015-05-24 19:21:00,77.0,43.0,-100.00,NNE,15,4.0,7.0,29,-99.99,,,-99.99,,2015-05-24 23:21:00,
2015-05-24 19:31:00,77.0,44.0,-100.00,NNE,15,4.0,9.0,30,-99.99,,,-99.99,,2015-05-24 23:31:00,
2015-05-24 19:42:00,77.0,44.0,-100.00,NNE,15,4.0,8.0,31,-99.99,,,-99.99,,2015-05-24 23:42:00,
2015-05-24 19:52:00,77.0,45.0,-100.00,NNE,15,4.0,8.0,31,-99.99,,,-99.99,,2015-05-24 23:52:00,
2015-05-24 20:02:00,76.0,45.0,-100.00,NNE,15,3.0,7.0,32,-99.99,,,-99.99,,2015-05-25 00:02:00,
2015-05-24 20:11:00,76.0,45.0,-100.00,NNE,15,6.0,8.0,32,-99.99,,,-99.99,,2015-05-25 00:11:00,
2015-05-24 20:21:00,76.0,45.0,-100.00,NNE,15,7.0,9.0,32,-99.99,,,-99.99,,2015-05-25 00:21:00,
2015-05-24 20:31:00,76.0,44.0,-100.00,NNE,15,4.0,9.0,32,-99.99,,,-99.99,,2015-05-25 00:31:00,
2015-05-24 20:42:00,75.0,44.0,-100.00,NNE,15,4.0,7.0,32,-99.99,,,-99.99,,2015-05-25 00:42:00,
2015-05-24 20:51:00,75.0,44.0,-100.00,NNE,15,3.0,7.0,32,-99.99,,,-99.99,,2015-05-25 00:51:00,
2015-05-24 21:02:00,74.0,44.0,-100.00,NNE,15,3.0,6.0,33,-99.99,,,-99.99,,2015-05-25 01:02:00,
2015-05-24 21:11:00,74.0,44.0,-100.00,NNE,15,4.0,6.0,33,-99.99,,,-99.99,,2015-05-25 01:11:00,
2015-05-24 21:21:00,74.0,44.0,-100.00,NNE,15,5.0,7.0,34,-99.99,,,-99.99,,2015-05-25 01:21:00,
2015-05-24 21:31:00,73.0,44.0,-100.00,NNE,15,4.0,7.0,35,-99.99,,,-99.99,,2015-05-25 01:31:00,
2015-05-24 21:42:00,73.0,44.0,-100.00,NNE,15,4.0,7.0,35,-99.99,,,-99.99,,2015-05-25 01:42:00,
2015-05-24 21:51:00,72.0,44.0,-100.00,NNE,15,4.0,7.0,36,-99.99,,,-99.99,,2015-05-25 01:51:00,
2015-05-24 22:03:00,72.0,44.0,-100.00,NNE,15,4.0,7.0,37,-99.99,,,-99.99,,2015-05-25 02:03:00,
2015-05-24 22:11:00,72.0,45.0,-100.00,NNE,15,4.0,7.0,37,-99.99,,,-99.99,,2015-05-25 02:11:00,
2015-05-24 22:21:00,71.0,45.0,-100.00,NNE,15,5.0,7.0,38,-99.99,,,-99.99,,2015-05-25 02:21:00,
2015-05-24 22:31:00,71.0,45.0,-100.00,NNE,15,6.0,7.0,39,-99.99,,,-99.99,,2015-05-25 02:31:00,
2015-05-24 22:42:00,71.0,45.0,-100.00,NNE,15,4.0,7.0,39,-99.99,,,-99.99,,2015-05-25 02:42:00,
2015-05-24 22:51:00,71.0,46.0,-100.00,NNE,15,6.0,7.0,41,-99.99,,,-99.99,,2015-05-25 02:51:00,
2015-05-24 23:01:00,70.0,46.0,-100.00,NNE,15,4.0,7.0,42,-99.99,,,-99.99,,2015-05-25 03:01:00,
2015-05-24 23:11:00,70.0,46.0,-100.00,NNE,15,4.0,7.0,43,-99.99,,,-99.99,,2015-05-25 03:11:00,
2015-05-24 23:21:00,70.0,47.0,-100.00,NNE,15,4.0,7.0,44,-99.99,,,-99.99,,2015-05-25 03:21:00,
2015-05-24 23:31:00,70.0,47.0,-100.00,NNE,15,6.0,8.0,44,-99.99,,,-99.99,,2015-05-25 03:31:00,
2015-05-24 23:42:00,70.0,47.0,-100.00,NNE,15,5.0,7.0,44,-99.99,,,-99.99,,2015-05-25 03:42:00,
2015-05-24 23:51:00,69.0,47.0,-100.00,NNE,15,5.0,7.0,45,-99.99,,,-99.99,,2015-05-25 03:51:00,